Home   Weather   Ede   Past weeks
Flag for Netherlands

Past Weather in Ede, Netherlands — Yesterday and Last 2 Weeks

Now
73 °F

Mostly cloudy.


Feels Like: 77 °F
Forecast: 67 / 46 °F
Wind: 8 mph from North

Location: Deelen

Current Time: Apr 8, 2020 at 5:55:58 pm

Latest Report: Apr 8, 2020 at 5:25 pm


Visibility: N/A

Pressure: 30.18 "Hg

Humidity: 31%

Dew Point: 41 °F

Location of EdeLocation

Past Weather in Ede — Graph

°F

Ede Temperature Yesterday

Maximum temperature yesterday: 66 °F (at 2:55 pm)
Minimum temperature yesterday: 37 °F (at 6:25 am)
Average temperature yesterday: 55 °F

High & Low Weather Summary for the Past Weeks

 TemperatureHumidityPressure
High75 °F (Apr 8, 1:25 pm)100% (Mar 31, 2:55 am)30.57 "Hg (Mar 31, 2:55 am)
Low23 °F (Mar 30, 3:55 am)19% (Mar 25, 1:55 pm)29.83 "Hg (Apr 2, 7:25 pm)
Average45 °F60%30.23 "Hg
* Reported Mar 24 3:25 pm — Apr 8 4:55 pm, Ede. Weather by CustomWeather, © 2020

Note: Actual official high and low records may vary slightly from our data, if they occured in-between our weather recording intervals... More about our weather records

Ede Weather History for the Previous 24 Hours

Scroll right to see more
 ConditionsComfort  
Time TempWeatherWind HumidityBarometerVisibility
4:55 pm
Wed, Apr 8
75 °FOvercast.8 mph29%30.18 "HgN/A
4:25 pm73 °FPartly sunny.7 mph29%30.21 "HgN/A
3:25 pm73 °FMostly cloudy.5 mph29%30.21 "HgN/A
2:55 pm75 °FPartly sunny.8 mph29%30.21 "HgN/A
2:25 pm75 °FPartly sunny.6 mph27%30.21 "HgN/A
1:55 pm73 °FPartly sunny.3 mph33%30.24 "HgN/A
1:25 pm75 °FMild.3 mph34%30.24 "HgN/A
12:55 pm73 °FScattered clouds.2 mph33%30.24 "HgN/A
12:25 pm72 °FPassing clouds.2 mph38%30.24 "HgN/A
11:55 am72 °FHigh level clouds.1 mph38%30.27 "HgN/A
11:25 am68 °FHigh level clouds.2 mph46%30.27 "HgN/A
10:55 am66 °FHigh level clouds.3 mph49%30.27 "HgN/A
10:25 am64 °FHigh level clouds.5 mph52%30.27 "HgN/A
9:55 am63 °FHigh level clouds.5 mph59%30.27 "HgN/A
9:25 am59 °FHigh level clouds.3 mph68%30.30 "HgN/A
8:55 am57 °FHigh level clouds.2 mph72%30.30 "HgN/A
8:25 am50 °FHigh level clouds.2 mph82%30.30 "HgN/A
7:55 am45 °FHigh level clouds.2 mph93%30.30 "HgN/A
7:25 am43 °FMostly cloudy.5 mph93%30.27 "HgN/A
6:55 am43 °FHigh level clouds.3 mph87%30.27 "HgN/A
6:25 am45 °FHigh level clouds.5 mph87%30.30 "HgN/A
5:55 am45 °FHigh level clouds.5 mph81%30.30 "HgN/A
5:25 am46 °FHigh level clouds.3 mph82%30.30 "HgN/A
4:55 am46 °FOvercast.2 mph82%30.30 "HgN/A
4:25 am48 °FMostly cloudy.1 mph76%30.30 "HgN/A
3:55 am50 °FOvercast.3 mph71%30.33 "HgN/A
3:25 am50 °FOvercast.2 mph71%30.33 "HgN/A
2:55 am52 °FOvercast.3 mph67%30.33 "Hg2 mi
2:25 am52 °FHigh level clouds.1 mph67%30.33 "Hg3 mi
1:55 am52 °FHigh level clouds.2 mph67%30.36 "Hg1 mi
1:25 am54 °FOvercast.7 mph63%30.36 "Hg3 mi
12:55 am54 °FHigh level clouds.7 mph63%30.36 "HgN/A
12:25 am54 °FHigh level clouds.6 mph63%30.36 "HgN/A
11:55 pm
Tue, Apr 7
55 °FHigh level clouds.5 mph59%30.36 "Hg2 mi
11:25 pm55 °FHigh level clouds.5 mph59%30.36 "HgN/A
10:55 pm55 °FHigh level clouds.5 mph59%30.39 "HgN/A
10:25 pm57 °FHigh level clouds.6 mph55%30.39 "HgN/A
9:55 pm54 °FHigh level clouds.5 mph63%30.39 "HgN/A
9:25 pm52 °FHigh level clouds.5 mph67%30.39 "HgN/A
8:55 pm52 °FHigh level clouds.6 mph67%30.39 "Hg1 mi
8:25 pm57 °FHigh level clouds.6 mph59%30.39 "Hg3 mi
7:55 pm61 °FHigh level clouds.6 mph48%30.39 "HgN/A
7:25 pm64 °FHigh level clouds.8 mph43%30.39 "HgN/A
6:55 pm64 °FHigh level clouds.9 mph43%30.39 "HgN/A
6:25 pm66 °FHigh level clouds.10 mph40%30.39 "HgN/A
5:55 pm66 °FPartly sunny.12 mph40%30.39 "HgN/A
5:25 pm66 °FMild.10 mph37%30.39 "HgN/A
Weather by CustomWeather, © 2020

See weather overview

Advertising